Louisville, KY

9:41 AM EST on December 08, 2016 (GMT -0500)
Louisville International-Standiford

Weather History for KSDF - December, 2012

Change the Weather History Date:

Wednesday, December 19, 2012

  Actual Average Record
Temperature  
Mean Temperature 46 °F 37 °F  
Max Temperature 53 °F 45 °F 69 °F (2008)
Min Temperature 38 °F 29 °F -5 °F (1884)
Degree Days  
Heating Degree Days 19 28  
Month to date heating degree days 279 491  
Since 1 July heating degree days 1133 1226  
Cooling Degree Days 0 0  
Month to date cooling degree days 4 0  
Year to date cooling degree days 1952 1613  
Moisture  
Dew Point 36 °F    
Average Humidity 70    
Maximum Humidity 85    
Minimum Humidity 54    
Precipitation  
Precipitation 0.00 in 0.12 in 2.44 in (2002)
Month to date precipitation 5.09 2.35  
Year to date precipitation 43.63 43.43  
Snow  
Snow 0.00 in 0.10 in 2.10 in (1950)
Month to date snowfall T 1.3  
Since 1 July snowfall T 1.5  
Snow Depth 0.00 in    
Sea Level Pressure  
Sea Level Pressure 29.98 in    
Wind  
Wind Speed 6 mph (ENE)    
Max Wind Speed 15 mph    
Max Gust Speed 22 mph    
Visibility 10 miles    
Events      
T = Trace of Precipitation, MM = Missing Value Source: NWS Daily Summary

Daily Weather History Graph

Daily Weather History Graph

Search for Another Location

Airport or City:

Trip Planner

Search our weather history database for the weather conditions in past years. The results will help you decide how hot, cold, wet, or windy it might be!

Date:

Astronomy

Dec. 19, 2012 Rise Set
Actual Time 7:55 AM EST 5:25 PM EST
Civil Twilight 7:25 AM EST 5:55 PM EST
Nautical Twilight 6:52 AM EST 6:28 PM EST
Astronomical Twilight 6:20 AM EST 7:00 PM EST
Moon 12:09 PM EST (12/19) No Moon Set
Length of Visible Light 10h 29m
Length of Day
9h 30m
Waxing Crescent, 45% of the Moon is Illuminated
Dec 19
Waxing Crescent
Dec 20
First Quarter
Dec 28
Full
Jan 4
Last Quarter
Jan 11
New

Hourly Weather History & Observations

Time (EST) Temp. Windchill Dew Point Humidity Pressure Visibility Wind Dir Wind Speed Gust Speed Precip Events Conditions
12:56 AM 50.0 °F - 36.0 °F 59% 29.86 in 10.0 mi WSW 10.4 mph - N/A   Scattered Clouds
1:56 AM 48.0 °F - 36.0 °F 63% 29.88 in 10.0 mi WSW 8.1 mph - N/A   Scattered Clouds
2:56 AM 46.9 °F - 37.0 °F 68% 29.92 in 10.0 mi Calm Calm - N/A   Scattered Clouds
3:56 AM 46.0 °F 42.5 °F 37.0 °F 71% 29.94 in 10.0 mi West 6.9 mph - N/A   Scattered Clouds
4:56 AM 43.0 °F 39.5 °F 37.9 °F 82% 29.96 in 10.0 mi NW 5.8 mph - N/A   Scattered Clouds
5:56 AM 39.9 °F 35.8 °F 35.1 °F 83% 29.98 in 10.0 mi NNW 5.8 mph - N/A   Scattered Clouds
6:56 AM 37.9 °F 34.4 °F 33.1 °F 83% 30.01 in 10.0 mi WNW 4.6 mph - N/A   Scattered Clouds
7:56 AM 39.0 °F 34.0 °F 33.1 °F 79% 30.03 in 8.0 mi North 6.9 mph - N/A   Overcast
8:56 AM 39.9 °F 35.8 °F 33.1 °F 77% 30.05 in 8.0 mi NNE 5.8 mph - N/A   Overcast
9:56 AM 41.0 °F 37.1 °F 33.1 °F 73% 30.06 in 8.0 mi NE 5.8 mph - N/A   Overcast
10:56 AM 43.0 °F 41.3 °F 33.1 °F 68% 30.09 in 8.0 mi East 3.5 mph - N/A   Overcast
11:56 AM 46.0 °F 43.1 °F 34.0 °F 63% 30.06 in 8.0 mi NNE 5.8 mph - N/A   Overcast
12:56 PM 48.0 °F - 35.1 °F 61% 30.04 in 9.0 mi Variable 3.5 mph - N/A   Overcast
1:56 PM 51.1 °F - 36.0 °F 56% 30.01 in 10.0 mi Variable 4.6 mph - N/A   Mostly Cloudy
2:56 PM 52.0 °F - 36.0 °F 54% 30.02 in 10.0 mi NE 3.5 mph - N/A   Mostly Cloudy
3:56 PM 52.0 °F - 37.0 °F 57% 30.00 in 10.0 mi East 8.1 mph - N/A   Mostly Cloudy
4:56 PM 51.1 °F - 37.9 °F 61% 30.00 in 10.0 mi East 6.9 mph - N/A   Overcast
5:56 PM 50.0 °F - 37.9 °F 63% 30.00 in 10.0 mi East 8.1 mph - N/A   Mostly Cloudy
6:56 PM 48.9 °F - 39.0 °F 69% 30.00 in 10.0 mi East 6.9 mph - N/A   Mostly Cloudy
7:56 PM 48.0 °F - 39.0 °F 71% 30.00 in 10.0 mi East 3.5 mph - N/A   Scattered Clouds
8:56 PM 48.0 °F - 39.9 °F 74% 29.98 in 10.0 mi SE 6.9 mph - N/A   Scattered Clouds
9:56 PM 48.0 °F - 39.0 °F 71% 29.95 in 10.0 mi ESE 5.8 mph - N/A   Mostly Cloudy
10:56 PM 48.0 °F - 39.9 °F 74% 29.91 in 10.0 mi SE 5.8 mph - N/A   Mostly Cloudy
11:56 PM 48.9 °F - 39.9 °F 71% 29.90 in 10.0 mi SE 8.1 mph - N/A   Mostly Cloudy